Weather History for Norfolk, NE

Change the Weather History Date:

Tuesday, January 22, 2013

  Actual Average Record
Temperature  
Mean Temperature 17 °F 23 °F  
Max Temperature 24 °F 33 °F 64 °F (1989)
Min Temperature 9 °F 12 °F -23 °F (1966)
Degree Days  
Heating Degree Days 48 42  
Month to date heating degree days 898 943  
Since 1 July heating degree days 3510 3649  
Cooling Degree Days 0 0  
Month to date cooling degree days 0 0  
Year to date cooling degree days 0 0  
Moisture  
Dew Point 7 °F    
Average Humidity 67    
Maximum Humidity 83    
Minimum Humidity 50    
Precipitation  
Precipitation 0.02 in 0.02 in 1.30 in (1982)
Month to date precipitation 0.14 0.41  
Year to date precipitation 0.14 0.41  
Snow  
Snow 0.30 in 0.30 in - ()
Month to date snowfall 0.3 4.4  
Since 1 July snowfall 7.8 15.3  
Snow Depth T in    
Sea Level Pressure  
Sea Level Pressure 30.32 in    
Wind  
Wind Speed 7 mph (SSE)    
Max Wind Speed 15 mph    
Max Gust Speed 20 mph    
Visibility 8 miles    
Events Snow    
T = Trace of Precipitation, MM = Missing Value Source: NWS Daily Summary

Daily Weather History Graph

Daily Weather History Graph

Search for Another Location

Airport:

Trip Planner

Search our weather history database for the weather conditions in past years. The results will help you decide how hot, cold, wet, or windy it might be!

Date:

Astronomy

Jan. 22, 2013 Rise Set
Actual Time 7:50 AM CST 5:32 PM CST
Civil Twilight 7:20 AM CST 6:02 PM CST
Nautical Twilight 6:46 AM CST 6:36 PM CST
Astronomical Twilight 6:13 AM CST 7:09 PM CST
Moon 1:55 PM CST (1/22) 4:14 AM CST (1/22)
Length of Visible Light 10h 42m
Length of Day
9h 41m
Waxing Gibbous, 83% of the Moon is Illuminated
Jan 22
Waxing Gibbous
Jan 26
Full
Feb 3
Last Quarter
Feb 10
New
Feb 17
First Quarter

Hourly Weather History & Observations

Time (CST) Temp. Windchill Dew Point Humidity Pressure Visibility Wind Dir Wind Speed Gust Speed Precip Events Conditions
12:56 AM 10.0 °F 3.6 °F 1.9 °F 70% 30.40 in 6.0 mi North 3.5 mph - 0.00 in Snow Light Snow
1:56 AM 9.0 °F - 3.0 °F 77% 30.40 in 5.0 mi Calm Calm - 0.00 in Snow Light Snow
2:40 AM 10.4 °F - 3.2 °F 73% 30.28 in 2.0 mi Calm Calm - 0.00 in Snow Light Snow
2:56 AM 10.0 °F - 3.9 °F 76% 30.38 in 2.0 mi Calm Calm - 0.01 in Snow Light Snow
3:09 AM 8.6 °F - 3.2 °F 79% 30.29 in 4.0 mi Calm Calm - 0.00 in Snow Light Snow
3:56 AM 9.0 °F 2.4 °F 3.9 °F 80% 30.37 in 3.0 mi ESE 3.5 mph - 0.00 in Snow Light Snow
4:56 AM 10.0 °F 1.8 °F 5.0 °F 80% 30.37 in 6.0 mi SE 4.6 mph - 0.01 in   Haze
5:56 AM 10.0 °F 1.8 °F 5.0 °F 80% 30.37 in 3.0 mi East 4.6 mph - 0.00 in Snow Light Snow
6:04 AM 10.4 °F 2.2 °F 5.0 °F 79% 30.28 in 2.0 mi East 4.6 mph - 0.00 in Snow Light Snow
6:36 AM 10.4 °F 2.2 °F 5.0 °F 79% 30.28 in 4.0 mi East 4.6 mph - 0.00 in Snow Light Snow
6:56 AM 10.0 °F 1.8 °F 5.0 °F 80% 30.39 in 6.0 mi East 4.6 mph - 0.00 in Snow Light Snow
7:56 AM 9.0 °F -2.2 °F 3.9 °F 80% 30.40 in 10.0 mi ESE 6.9 mph - 0.00 in   Overcast
8:56 AM 10.0 °F -0.9 °F 3.9 °F 76% 30.41 in 10.0 mi ESE 6.9 mph - N/A   Overcast
9:56 AM 10.9 °F -1.8 °F 6.1 °F 81% 30.40 in 8.0 mi SSE 9.2 mph - N/A   Overcast
10:56 AM 12.9 °F -0.2 °F 7.0 °F 77% 30.41 in 10.0 mi SSE 10.4 mph - N/A   Overcast
11:56 AM 17.1 °F 5.8 °F 9.0 °F 71% 30.38 in 10.0 mi South 9.2 mph - N/A   Overcast
12:33 PM 17.6 °F 5.0 °F 8.6 °F 68% 30.26 in 10.0 mi SSE 11.5 mph - N/A   Overcast
12:56 PM 18.0 °F 6.1 °F 10.0 °F 71% 30.34 in 10.0 mi SSE 10.4 mph - N/A   Mostly Cloudy
1:29 PM 19.4 °F 7.9 °F 10.4 °F 68% 30.21 in 10.0 mi SSE 10.4 mph - N/A   Scattered Clouds
1:56 PM 21.9 °F 11.7 °F 12.0 °F 66% 30.30 in 10.0 mi South 9.2 mph - N/A   Scattered Clouds
2:56 PM 24.1 °F 12.5 °F 9.0 °F 53% 30.28 in 10.0 mi South 12.7 mph - N/A   Clear
3:56 PM 24.1 °F 14.4 °F 9.0 °F 53% 30.27 in 10.0 mi South 9.2 mph - N/A   Clear
4:56 PM 21.9 °F 9.8 °F 9.0 °F 58% 30.27 in 10.0 mi SSW 12.7 mph - N/A   Clear
5:56 PM 18.0 °F 7.7 °F 8.1 °F 65% 30.28 in 10.0 mi SSW 8.1 mph - N/A   Clear
6:56 PM 17.1 °F 7.6 °F 8.1 °F 68% 30.28 in 10.0 mi South 6.9 mph - N/A   Clear
7:56 PM 16.0 °F 5.3 °F 8.1 °F 71% 30.26 in 10.0 mi South 8.1 mph - N/A   Clear
8:56 PM 16.0 °F 6.3 °F 9.0 °F 74% 30.25 in 10.0 mi SSE 6.9 mph - N/A   Clear
9:56 PM 15.1 °F 6.4 °F 9.0 °F 77% 30.26 in 10.0 mi SSE 5.8 mph - N/A   Clear
10:56 PM 14.0 °F 5.1 °F 9.0 °F 80% 30.27 in 10.0 mi SE 5.8 mph - N/A   Clear
11:56 PM 14.0 °F 6.5 °F 9.0 °F 80% 30.25 in 10.0 mi SSE 4.6 mph - N/A   Clear